Location: Middlebury
(44.0133°N, 73.1813°W)
Time: 13:42:29
(UTC-04:00)

Envisat - Pass Details

Date: 31 January 2022
Orbit: 764 x 765 km, 98.2° (Epoch: 18 May)

Event Time Altitude Azimuth Distance (km) Brightness Sun altitude
Rises 06:11:38 0° 359° (N) 3,241 6.1 -11.0°
Reaches altitude 10° 06:14:33 10° 342° (NNW) 2,311 5.2 -10.5°
Maximum altitude 06:18:00 19° 299° (WNW) 1,778 4.3 -9.9°
Drops below altitude 10° 06:21:27 10° 256° (WSW) 2,302 4.9 -9.3°
Sets 06:24:21 0° 238° (WSW) 3,224 5.8 -8.8°
